Regional Weather Roundup
Issued by NWS Goodland, KS

Home | Current Version | Previous Version | Graphics & Text | Print | Product List | Glossary On
Versions: 1 2 3 4 5 6 7 8 9 10 11 12 13 14 15 16 17 18 19 20 21 22 23 24 25 26 27 28 29 30 31 32 33 34 35 36 37 38 39 40 41 42 43 44 45 46 47 48 49 50
000
ASUS43 KGLD 201359
RWRGLD

GOODLAND FORECAST AREA HOURLY WEATHER ROUNDUP
NATIONAL WEATHER SERVICE GOODLAND KS
700 AM MST MON FEB 20 2017

...OFFICIAL OBSERVATIONS...

CITY           SKY/WX    TMP DP  RH WIND       PRES   REMARKS
GOODLAND KS    CLEAR     44  19  36 NW20      29.86R
HILL CITY KS   CLOUDY    49  39  68 W6        29.78R
IMPERIAL NEB   CLEAR     43  21  41 W16       29.80R
MCCOOK NEB     CLOUDY    47  34  60 W7        29.78R
AKRON CO       CLEAR     37  18  46 W12       29.89R
BURLINGTON CO  CLEAR     35  19  52 NW12      29.89R
LIMON CO       CLEAR     27  18  69 W6        29.94R
$$

...UNOFFICIAL OBSERVATIONS...

CITY           SKY/WX    TMP DP  RH WIND       PRES   REMARKS
LENORA KS        N/A     49  32  52 NW6         N/A
NORTON KS      CLEAR     48  36  61 W13       29.76R
SHARON SPRINGS   N/A     45  20  37 NW20G29     N/A
TRENTON NEB      N/A     47  32  56 NW12        N/A
KIT CARSON CO    N/A     42  20  41 MISG        N/A
YUMA CO        FAIR      39  18  41 NW18      29.87R
$$




USA.gov is the U.S. government's official web portal to all federal, state and local government web resources and services.